Location: Ago
(8.4667°N, 4.4167°E)
Time: 09:07:21
(UTC+00:00)

Palapa 6 Rocket - Pass Details

Date: 06 June 2020
Orbit: 485 x 1217 km, 22.8° (Epoch: 06 July)

Event Time Altitude Azimuth Distance (km) Brightness Sun altitude
Rises 18:28:14 0° 228° (SW) 2,538 6.6 -7.4°
Reaches altitude 10° 18:30:31 10° 217° (SW) 1,689 5.5 -7.9°
Maximum altitude 18:33:56 31° 154° (SSE) 945 3.6 -8.7°
Enters shadow 18:37:46 10° 91° (E) 1,893 5.0 -9.6°
